Time,TemperatureF,DewpointF,PressureIn,WindDirection,WindDirectionDegrees,WindSpeedMPH,WindSpeedGustMPH,Humidity,HourlyPrecipIn,Conditions,Clouds,dailyrainin,SolarRadiationWatts/m^2,SoftwareType,DateUTC
2013-02-28 00:01:00,52.0,49.0,-100.00,WNW,290,5.0,-999.0,88,0.00,,,-99.99,0.500000,,2013-02-28 05:01:00,
2013-02-28 00:11:00,52.0,49.0,-100.00,WNW,290,5.0,-999.0,89,0.00,,,-99.99,0.500000,,2013-02-28 05:11:00,
2013-02-28 00:22:00,52.0,49.0,-100.00,WNW,290,5.0,-999.0,89,0.00,,,-99.99,0.500000,,2013-02-28 05:22:00,
2013-02-28 00:32:00,51.0,49.0,-100.00,WNW,298,4.0,-999.0,90,0.00,,,-99.99,0.500000,,2013-02-28 05:32:00,
2013-02-28 00:42:00,51.0,48.0,-100.00,West,269,3.0,-999.0,91,0.00,,,-99.99,0.500000,,2013-02-28 05:42:00,
2013-02-28 00:52:00,51.0,48.0,-100.00,West,269,3.0,-999.0,91,0.00,,,-99.99,0.500000,,2013-02-28 05:52:00,
2013-02-28 01:01:00,51.0,48.0,-100.00,WNW,297,4.0,-999.0,92,0.00,,,-99.99,0.500000,,2013-02-28 06:01:00,
2013-02-28 01:11:00,50.0,48.0,-100.00,WNW,286,3.0,-999.0,93,0.00,,,-99.99,0.500000,,2013-02-28 06:11:00,
2013-02-28 01:22:00,50.0,48.0,-100.00,WNW,286,3.0,-999.0,93,0.00,,,-99.99,0.500000,,2013-02-28 06:22:00,
2013-02-28 01:32:00,49.0,47.0,-100.00,SSW,211,2.0,-999.0,93,0.00,,,-99.99,0.500000,,2013-02-28 06:32:00,
2013-02-28 01:42:00,49.0,47.0,-100.00,SW,214,1.0,-999.0,94,0.00,,,-99.99,0.500000,,2013-02-28 06:42:00,
2013-02-28 01:52:00,49.0,47.0,-100.00,SW,214,1.0,-999.0,94,0.00,,,-99.99,0.500000,,2013-02-28 06:52:00,
2013-02-28 02:01:00,48.0,47.0,-100.00,SW,215,1.0,-999.0,95,0.00,,,-99.99,0.500000,,2013-02-28 07:01:00,
2013-02-28 02:11:00,48.0,47.0,-100.00,SW,226,1.0,-999.0,96,0.00,,,-99.99,0.400000,,2013-02-28 07:11:00,
2013-02-28 02:21:00,48.0,47.0,-100.00,SW,226,1.0,-999.0,96,0.00,,,-99.99,0.400000,,2013-02-28 07:21:00,
2013-02-28 02:32:00,48.0,47.0,-100.00,WSW,256,1.0,-999.0,96,0.00,,,-99.99,0.400000,,2013-02-28 07:32:00,
2013-02-28 02:42:00,48.0,47.0,-100.00,SW,236,1.0,-999.0,96,0.00,,,-99.99,0.400000,,2013-02-28 07:42:00,
2013-02-28 02:52:00,48.0,47.0,-100.00,SW,236,1.0,-999.0,96,0.00,,,-99.99,0.400000,,2013-02-28 07:52:00,
2013-02-28 03:01:00,48.0,47.0,-100.00,SE,143,1.0,-999.0,96,0.00,,,-99.99,0.400000,,2013-02-28 08:01:00,
2013-02-28 03:11:00,47.0,47.0,-100.00,WSW,243,1.0,-999.0,97,0.00,,,-99.99,0.400000,,2013-02-28 08:11:00,
2013-02-28 03:22:00,47.0,47.0,-100.00,WSW,243,1.0,-999.0,97,0.00,,,-99.99,0.400000,,2013-02-28 08:22:00,
2013-02-28 03:32:00,47.0,46.0,-100.00,West,280,1.0,-999.0,97,0.00,,,-99.99,0.400000,,2013-02-28 08:32:00,
2013-02-28 03:42:00,46.0,46.0,-100.00,North,356,2.0,-999.0,97,0.00,,,-99.99,0.400000,,2013-02-28 08:42:00,
2013-02-28 03:53:00,46.0,46.0,-100.00,North,356,2.0,-999.0,97,0.00,,,-99.99,0.400000,,2013-02-28 08:53:00,
2013-02-28 04:03:00,46.0,45.0,-100.00,ESE,122,1.0,-999.0,97,0.00,,,-99.99,0.400000,,2013-02-28 09:03:00,
2013-02-28 04:12:00,46.0,45.0,-100.00,SSE,151,1.0,-999.0,98,0.00,,,-99.99,0.400000,,2013-02-28 09:12:00,
2013-02-28 04:22:00,46.0,45.0,-100.00,SSE,151,1.0,-999.0,98,0.00,,,-99.99,0.400000,,2013-02-28 09:22:00,
2013-02-28 04:32:00,46.0,45.0,-100.00,SE,141,1.0,-999.0,98,0.00,,,-99.99,0.400000,,2013-02-28 09:32:00,
2013-02-28 04:42:00,45.0,45.0,-100.00,ESE,113,1.0,-999.0,98,0.00,,,-99.99,0.400000,,2013-02-28 09:42:00,
2013-02-28 04:52:00,45.0,45.0,-100.00,ESE,113,1.0,-999.0,98,0.00,,,-99.99,0.400000,,2013-02-28 09:52:00,
2013-02-28 05:02:00,45.0,44.0,-100.00,North,3,0.0,-999.0,98,0.00,,,-99.99,0.400000,,2013-02-28 10:02:00,
2013-02-28 05:12:00,44.0,43.0,-100.00,WSW,240,1.0,-999.0,98,0.00,,,-99.99,0.300000,,2013-02-28 10:12:00,
2013-02-28 05:22:00,44.0,43.0,-100.00,WSW,240,1.0,-999.0,98,0.00,,,-99.99,0.300000,,2013-02-28 10:22:00,
2013-02-28 05:32:00,44.0,44.0,-100.00,SE,130,1.0,-999.0,98,0.00,,,-99.99,0.400000,,2013-02-28 10:32:00,
2013-02-28 05:42:00,44.0,43.0,-100.00,NE,44,1.0,-999.0,98,0.00,,,-99.99,0.400000,,2013-02-28 10:42:00,
2013-02-28 05:52:00,44.0,43.0,-100.00,NE,44,1.0,-999.0,98,0.00,,,-99.99,0.400000,,2013-02-28 10:52:00,
2013-02-28 06:01:00,43.0,43.0,-100.00,SE,127,1.0,-999.0,98,0.00,,,-99.99,0.400000,,2013-02-28 11:01:00,
2013-02-28 06:11:00,43.0,43.0,-100.00,South,186,2.0,-999.0,98,0.00,,,-99.99,0.400000,,2013-02-28 11:11:00,
2013-02-28 06:22:00,43.0,43.0,-100.00,South,186,2.0,-999.0,98,0.00,,,-99.99,0.400000,,2013-02-28 11:22:00,
2013-02-28 06:32:00,43.0,43.0,-100.00,SSW,208,1.0,-999.0,99,0.00,,,-99.99,0.400000,,2013-02-28 11:32:00,
2013-02-28 06:42:00,43.0,43.0,-100.00,SSW,193,2.0,-999.0,99,0.00,,,-99.99,0.400000,,2013-02-28 11:42:00,
2013-02-28 06:52:00,43.0,43.0,-100.00,SSW,193,2.0,-999.0,99,0.00,,,-99.99,0.400000,,2013-02-28 11:52:00,
2013-02-28 07:02:00,43.0,43.0,-100.00,SSW,195,2.0,-999.0,99,0.00,,,-99.99,0.800000,,2013-02-28 12:02:00,
2013-02-28 07:12:00,44.0,44.0,-100.00,SSW,208,1.0,-999.0,99,0.00,,,-99.99,3.900000,,2013-02-28 12:12:00,
2013-02-28 07:22:00,44.0,44.0,-100.00,SSW,208,1.0,-999.0,99,0.00,,,-99.99,3.900000,,2013-02-28 12:22:00,
2013-02-28 07:32:00,44.0,44.0,-100.00,WSW,238,1.0,-999.0,99,0.00,,,-99.99,17.000000,,2013-02-28 12:32:00,
2013-02-28 07:42:00,45.0,45.0,-100.00,SSW,194,1.0,-999.0,99,0.00,,,-99.99,57.500000,,2013-02-28 12:42:00,
2013-02-28 07:52:00,45.0,45.0,-100.00,SSW,194,1.0,-999.0,99,0.00,,,-99.99,57.500000,,2013-02-28 12:52:00,
2013-02-28 08:02:00,48.0,47.0,-100.00,SE,140,0.0,-999.0,99,0.00,,,-99.99,115.500000,,2013-02-28 13:02:00,
2013-02-28 08:12:00,50.0,50.0,-100.00,SW,220,1.0,-999.0,98,0.00,,,-99.99,178.199997,,2013-02-28 13:12:00,
2013-02-28 08:22:00,50.0,50.0,-100.00,SW,220,1.0,-999.0,98,0.00,,,-99.99,178.199997,,2013-02-28 13:22:00,
2013-02-28 08:32:00,52.0,51.0,-100.00,SSW,202,2.0,-999.0,98,0.00,,,-99.99,225.100006,,2013-02-28 13:32:00,
2013-02-28 08:42:00,53.0,53.0,-100.00,SSW,212,3.0,-999.0,97,0.00,,,-99.99,270.700012,,2013-02-28 13:42:00,
2013-02-28 08:52:00,53.0,53.0,-100.00,SSW,212,3.0,-999.0,97,0.00,,,-99.99,270.700012,,2013-02-28 13:52:00,
2013-02-28 09:01:00,55.0,54.0,-100.00,SSW,207,3.0,-999.0,97,0.00,,,-99.99,316.500000,,2013-02-28 14:01:00,
2013-02-28 09:11:00,56.0,55.0,-100.00,SSW,206,3.0,-999.0,95,0.00,,,-99.99,363.100006,,2013-02-28 14:11:00,
2013-02-28 09:22:00,56.0,55.0,-100.00,SSW,206,3.0,-999.0,95,0.00,,,-99.99,363.100006,,2013-02-28 14:22:00,
2013-02-28 09:32:00,59.0,55.0,-100.00,SW,235,3.0,-999.0,88,0.00,,,-99.99,410.799988,,2013-02-28 14:32:00,
2013-02-28 09:42:00,61.0,55.0,-100.00,West,265,4.0,-999.0,79,0.00,,,-99.99,460.700012,,2013-02-28 14:42:00,
2013-02-28 09:52:00,61.0,55.0,-100.00,West,265,4.0,-999.0,79,0.00,,,-99.99,460.700012,,2013-02-28 14:52:00,
2013-02-28 10:02:00,63.0,55.0,-100.00,WNW,298,5.0,-999.0,74,0.00,,,-99.99,514.599976,,2013-02-28 15:02:00,
2013-02-28 10:11:00,63.0,54.0,-100.00,NW,304,7.0,-999.0,73,0.00,,,-99.99,340.500000,,2013-02-28 15:11:00,
2013-02-28 10:22:00,63.0,54.0,-100.00,NW,304,7.0,-999.0,73,0.00,,,-99.99,340.500000,,2013-02-28 15:22:00,
2013-02-28 10:32:00,64.0,55.0,-100.00,NW,310,7.0,-999.0,72,0.00,,,-99.99,391.899994,,2013-02-28 15:32:00,
2013-02-28 10:42:00,64.0,55.0,-100.00,NW,314,7.0,-999.0,71,0.00,,,-99.99,480.000000,,2013-02-28 15:42:00,
2013-02-28 10:52:00,64.0,55.0,-100.00,NW,314,7.0,-999.0,71,0.00,,,-99.99,480.000000,,2013-02-28 15:52:00,
2013-02-28 11:02:00,64.0,54.0,-100.00,NW,306,7.0,-999.0,69,0.00,,,-99.99,506.399994,,2013-02-28 16:02:00,
2013-02-28 11:12:00,65.0,54.0,-100.00,NNW,329,7.0,-999.0,67,0.00,,,-99.99,561.900024,,2013-02-28 16:12:00,
2013-02-28 11:22:00,65.0,54.0,-100.00,NNW,329,7.0,-999.0,67,0.00,,,-99.99,561.900024,,2013-02-28 16:22:00,
2013-02-28 11:32:00,65.0,54.0,-100.00,NW,325,7.0,-999.0,67,0.00,,,-99.99,334.000000,,2013-02-28 16:32:00,
2013-02-28 11:42:00,66.0,54.0,-100.00,NNW,328,7.0,-999.0,65,0.00,,,-99.99,382.000000,,2013-02-28 16:42:00,
2013-02-28 11:52:00,66.0,54.0,-100.00,NNW,328,7.0,-999.0,65,0.00,,,-99.99,382.000000,,2013-02-28 16:52:00,
2013-02-28 12:02:00,67.0,54.0,-100.00,North,351,8.0,-999.0,63,0.00,,,-99.99,514.799988,,2013-02-28 17:02:00,
2013-02-28 12:12:00,66.0,53.0,-100.00,WNW,298,9.0,-999.0,62,0.00,,,-99.99,448.200012,,2013-02-28 17:12:00,
2013-02-28 12:22:00,66.0,53.0,-100.00,WNW,298,9.0,-999.0,62,0.00,,,-99.99,448.200012,,2013-02-28 17:22:00,
2013-02-28 12:32:00,68.0,53.0,-100.00,WNW,291,11.0,-999.0,57,0.00,,,-99.99,765.000000,,2013-02-28 17:32:00,
2013-02-28 12:42:00,69.0,53.0,-100.00,West,259,10.0,-999.0,55,0.00,,,-99.99,529.799988,,2013-02-28 17:42:00,
2013-02-28 12:53:00,69.0,53.0,-100.00,West,259,10.0,-999.0,55,0.00,,,-99.99,529.799988,,2013-02-28 17:53:00,
2013-02-28 13:02:00,69.0,52.0,-100.00,West,270,11.0,-999.0,55,0.00,,,-99.99,489.100006,,2013-02-28 18:02:00,
2013-02-28 13:12:00,70.0,52.0,-100.00,West,279,12.0,-999.0,52,0.00,,,-99.99,486.299988,,2013-02-28 18:12:00,
2013-02-28 13:22:00,70.0,52.0,-100.00,West,279,12.0,-999.0,52,0.00,,,-99.99,486.299988,,2013-02-28 18:22:00,
2013-02-28 13:32:00,71.0,51.0,-100.00,West,278,11.0,-999.0,49,0.00,,,-99.99,671.500000,,2013-02-28 18:32:00,
2013-02-28 13:42:00,73.0,50.0,-100.00,West,264,14.0,-999.0,43,0.00,,,-99.99,819.000000,,2013-02-28 18:42:00,
2013-02-28 13:52:00,73.0,50.0,-100.00,West,264,14.0,-999.0,43,0.00,,,-99.99,819.000000,,2013-02-28 18:52:00,
2013-02-28 14:02:00,74.0,48.0,-100.00,West,266,16.0,-999.0,40,0.00,,,-99.99,772.000000,,2013-02-28 19:02:00,
2013-02-28 14:11:00,73.0,48.0,-100.00,West,265,17.0,-999.0,40,0.00,,,-99.99,738.000000,,2013-02-28 19:11:00,
2013-02-28 14:22:00,73.0,48.0,-100.00,West,265,17.0,-999.0,40,0.00,,,-99.99,738.000000,,2013-02-28 19:22:00,
2013-02-28 14:32:00,74.0,48.0,-100.00,West,277,15.0,-999.0,40,0.00,,,-99.99,707.000000,,2013-02-28 19:32:00,
2013-02-28 14:42:00,73.0,48.0,-100.00,West,281,16.0,-999.0,39,0.00,,,-99.99,659.900024,,2013-02-28 19:42:00,
2013-02-28 14:52:00,73.0,48.0,-100.00,West,281,16.0,-999.0,39,0.00,,,-99.99,659.900024,,2013-02-28 19:52:00,
2013-02-28 15:01:00,74.0,47.0,-100.00,West,274,16.0,-999.0,38,0.00,,,-99.99,652.099976,,2013-02-28 20:01:00,
2013-02-28 15:12:00,74.0,46.0,-100.00,WNW,284,17.0,-999.0,37,0.00,,,-99.99,622.299988,,2013-02-28 20:12:00,
2013-02-28 15:22:00,74.0,46.0,-100.00,WNW,284,17.0,-999.0,37,0.00,,,-99.99,622.299988,,2013-02-28 20:22:00,
2013-02-28 15:32:00,74.0,47.0,-100.00,West,272,15.0,-999.0,38,0.00,,,-99.99,590.500000,,2013-02-28 20:32:00,
2013-02-28 15:42:00,73.0,45.0,-100.00,West,278,16.0,-999.0,37,0.00,,,-99.99,550.400024,,2013-02-28 20:42:00,
2013-02-28 15:52:00,73.0,45.0,-100.00,West,278,16.0,-999.0,37,0.00,,,-99.99,550.400024,,2013-02-28 20:52:00,
2013-02-28 16:02:00,73.0,46.0,-100.00,West,279,17.0,-999.0,37,0.00,,,-99.99,505.500000,,2013-02-28 21:02:00,
2013-02-28 16:11:00,73.0,45.0,-100.00,WNW,282,17.0,-999.0,37,0.00,,,-99.99,461.700012,,2013-02-28 21:11:00,
2013-02-28 16:22:00,73.0,45.0,-100.00,WNW,282,17.0,-999.0,37,0.00,,,-99.99,461.700012,,2013-02-28 21:22:00,
2013-02-28 16:32:00,72.0,44.0,-100.00,WNW,283,19.0,-999.0,36,0.00,,,-99.99,417.799988,,2013-02-28 21:32:00,
2013-02-28 16:42:00,72.0,44.0,-100.00,WNW,283,19.0,-999.0,36,0.00,,,-99.99,417.799988,,2013-02-28 21:42:00,
2013-02-28 16:52:00,71.0,44.0,-100.00,West,272,18.0,-999.0,37,0.00,,,-99.99,370.200012,,2013-02-28 21:52:00,
2013-02-28 17:01:00,71.0,45.0,-100.00,WNW,282,17.0,-999.0,39,0.00,,,-99.99,318.000000,,2013-02-28 22:01:00,
2013-02-28 17:11:00,70.0,46.0,-100.00,WNW,290,15.0,-999.0,42,0.00,,,-99.99,268.899994,,2013-02-28 22:11:00,
2013-02-28 17:22:00,70.0,46.0,-100.00,WNW,290,15.0,-999.0,42,0.00,,,-99.99,268.899994,,2013-02-28 22:22:00,
2013-02-28 17:32:00,69.0,46.0,-100.00,WNW,285,16.0,-999.0,43,0.00,,,-99.99,217.600006,,2013-02-28 22:32:00,
2013-02-28 17:42:00,69.0,46.0,-100.00,WNW,285,16.0,-999.0,43,0.00,,,-99.99,217.600006,,2013-02-28 22:42:00,
2013-02-28 17:52:00,68.0,47.0,-100.00,WNW,292,16.0,-999.0,46,0.00,,,-99.99,168.399994,,2013-02-28 22:52:00,
2013-02-28 18:01:00,67.0,48.0,-100.00,WNW,293,17.0,-999.0,49,0.00,,,-99.99,120.400002,,2013-02-28 23:01:00,
2013-02-28 18:11:00,66.0,48.0,-100.00,WNW,295,16.0,-999.0,52,0.00,,,-99.99,69.199997,,2013-02-28 23:11:00,
2013-02-28 18:22:00,66.0,48.0,-100.00,WNW,295,16.0,-999.0,52,0.00,,,-99.99,69.199997,,2013-02-28 23:22:00,
2013-02-28 18:32:00,65.0,49.0,-100.00,WNW,294,15.0,-999.0,57,0.00,,,-99.99,25.900000,,2013-02-28 23:32:00,
2013-02-28 18:42:00,65.0,49.0,-100.00,WNW,294,15.0,-999.0,57,0.00,,,-99.99,25.900000,,2013-02-28 23:42:00,
2013-02-28 18:53:00,63.0,50.0,-100.00,WNW,293,13.0,-999.0,61,0.00,,,-99.99,6.800000,,2013-02-28 23:53:00,
2013-02-28 19:02:00,62.0,49.0,-100.00,WNW,283,11.0,-999.0,63,0.00,,,-99.99,1.700000,,2013-03-01 00:02:00,
2013-02-28 19:11:00,61.0,49.0,-100.00,WNW,283,9.0,-999.0,65,0.00,,,-99.99,0.600000,,2013-03-01 00:11:00,
2013-02-28 19:22:00,61.0,49.0,-100.00,WNW,283,9.0,-999.0,65,0.00,,,-99.99,0.600000,,2013-03-01 00:22:00,
2013-02-28 19:32:00,60.0,49.0,-100.00,WNW,286,10.0,-999.0,65,0.00,,,-99.99,0.600000,,2013-03-01 00:32:00,
2013-02-28 19:42:00,60.0,49.0,-100.00,WNW,286,10.0,-999.0,65,0.00,,,-99.99,0.600000,,2013-03-01 00:42:00,
2013-02-28 19:52:00,60.0,47.0,-100.00,WNW,286,11.0,-999.0,63,0.00,,,-99.99,0.600000,,2013-03-01 00:52:00,
2013-02-28 20:01:00,59.0,47.0,-100.00,West,275,10.0,-999.0,63,0.00,,,-99.99,0.500000,,2013-03-01 01:01:00,
2013-02-28 20:11:00,58.0,46.0,-100.00,West,278,10.0,-999.0,63,0.00,,,-99.99,0.500000,,2013-03-01 01:11:00,
2013-02-28 20:22:00,58.0,46.0,-100.00,West,278,10.0,-999.0,63,0.00,,,-99.99,0.500000,,2013-03-01 01:22:00,
2013-02-28 20:32:00,58.0,46.0,-100.00,West,270,8.0,-999.0,64,0.00,,,-99.99,0.500000,,2013-03-01 01:32:00,
2013-02-28 20:42:00,56.0,46.0,-100.00,West,261,7.0,-999.0,69,0.00,,,-99.99,0.400000,,2013-03-01 01:42:00,
2013-02-28 20:52:00,56.0,46.0,-100.00,West,261,7.0,-999.0,69,0.00,,,-99.99,0.400000,,2013-03-01 01:52:00,
2013-02-28 21:01:00,56.0,47.0,-100.00,West,266,7.0,-999.0,70,0.00,,,-99.99,0.400000,,2013-03-01 02:01:00,
2013-02-28 21:11:00,56.0,47.0,-100.00,West,266,7.0,-999.0,70,0.00,,,-99.99,0.400000,,2013-03-01 02:11:00,
2013-02-28 21:21:00,56.0,47.0,-100.00,West,269,7.0,-999.0,70,0.00,,,-99.99,0.400000,,2013-03-01 02:21:00,
2013-02-28 21:32:00,55.0,47.0,-100.00,West,268,5.0,-999.0,72,0.00,,,-99.99,0.400000,,2013-03-01 02:32:00,
2013-02-28 21:42:00,55.0,47.0,-100.00,West,268,5.0,-999.0,72,0.00,,,-99.99,0.400000,,2013-03-01 02:42:00,
2013-02-28 21:52:00,54.0,47.0,-100.00,WSW,253,3.0,-999.0,75,0.00,,,-99.99,0.400000,,2013-03-01 02:52:00,
2013-02-28 22:02:00,54.0,47.0,-100.00,WSW,240,3.0,-999.0,76,0.00,,,-99.99,0.400000,,2013-03-01 03:02:00,
2013-02-28 22:11:00,53.0,46.0,-100.00,SW,220,3.0,-999.0,77,0.00,,,-99.99,0.400000,,2013-03-01 03:11:00,
2013-02-28 22:22:00,53.0,46.0,-100.00,SW,220,3.0,-999.0,77,0.00,,,-99.99,0.400000,,2013-03-01 03:22:00,
2013-02-28 22:32:00,53.0,47.0,-100.00,SSW,209,3.0,-999.0,80,0.00,,,-99.99,0.500000,,2013-03-01 03:32:00,
2013-02-28 22:42:00,53.0,47.0,-100.00,WSW,248,3.0,-999.0,81,0.00,,,-99.99,0.500000,,2013-03-01 03:42:00,
2013-02-28 22:52:00,53.0,47.0,-100.00,WSW,248,3.0,-999.0,81,0.00,,,-99.99,0.500000,,2013-03-01 03:52:00,
2013-02-28 23:01:00,52.0,47.0,-100.00,WSW,253,3.0,-999.0,83,0.00,,,-99.99,0.500000,,2013-03-01 04:01:00,
2013-02-28 23:12:00,51.0,47.0,-100.00,WSW,249,4.0,-999.0,85,0.00,,,-99.99,0.500000,,2013-03-01 04:12:00,
2013-02-28 23:21:00,51.0,47.0,-100.00,WSW,249,4.0,-999.0,85,0.00,,,-99.99,0.500000,,2013-03-01 04:21:00,
2013-02-28 23:32:00,51.0,47.0,-100.00,West,265,4.0,-999.0,85,0.00,,,-99.99,0.500000,,2013-03-01 04:32:00,
2013-02-28 23:42:00,51.0,47.0,-100.00,West,275,4.0,-999.0,86,0.00,,,-99.99,0.500000,,2013-03-01 04:42:00,
2013-02-28 23:52:00,51.0,47.0,-100.00,West,275,4.0,-999.0,86,0.00,,,-99.99,0.500000,,2013-03-01 04:52:00,